Flag for U.S.A. Weather past 2 weeks in Worcester, Massachusetts, U.S.A.

Now
64 °F

Clear.


Feels Like: 64 °F
Forecast: 63 / 81 °F
Wind: 10 mph from Southwest

Location: Worcester Regional Airport

Current Time: Aug 1, 2014 at 12:13:02 AM

Latest Report: Jul 31, 2014 at 11:54 PM


Visibility: 10 mi

Pressure: 30.18 "Hg

Humidity: 90%

Dew point: 61 °F

Location of WorcesterLocation

Historic Weather in Worcester — Graph

°F

Worcester temperature yesterday

Maximum temperature yesterday: 76 °F (at 2:54 PM)
Minimum temperature yesterday: 56 °F (at 5:54 AM)
Average temperature yesterday: 67 °F

Past Weeks' High & Low Weather Summary

 TemperatureHumidityPressure
High86 °F (Jul 23, 2:54 PM)100% (Jul 21, 6:54 AM)30.29 "Hg (Jul 21, 6:54 AM)
Low55 °F (Jul 25, 5:54 AM)36% (Jul 18, 4:54 PM)29.48 "Hg (Jul 28, 3:54 PM)
Average68 °F71%29.99 "Hg
* Reported Jul 16 10:54 PM — Jul 31 10:54 PM, Worcester, Weather by CustomWeather, © 2014

Note: Actual official high and low records may vary slightly from our data, if they occured in-between our weather recording intervals... More about our weather records

Advertising

Worcester weather history for previous 24 hours

 ConditionsComfort  
Time TempWeatherWind HumidityBarometerVisibility
10:54 PM
Jul 31
66 °FPassing clouds.9 mph81%30.18 "Hg10 mi
9:54 PM67 °FClear.10 mph76%30.17 "Hg10 mi
8:54 PM69 °FSunny.10 mph68%30.15 "Hg10 mi
7:54 PM71 °FScattered clouds.13 mph61%30.13 "Hg10 mi
6:54 PM73 °FBroken clouds.9 mph57%30.11 "Hg10 mi
5:54 PM75 °FPartly sunny.14 mph54%30.11 "Hg10 mi
4:54 PM76 °FPassing clouds.13 mph48%30.10 "Hg10 mi
3:54 PM76 °FPassing clouds.14 mph48%30.10 "Hg10 mi
2:54 PM76 °FPartly sunny.14 mph50%30.10 "Hg10 mi
1:54 PM75 °FPassing clouds.14 mph50%30.10 "Hg10 mi
12:54 PM75 °FPassing clouds.12 mph52%30.11 "Hg10 mi
11:54 AM74 °FPassing clouds.13 mph52%30.11 "Hg10 mi
10:54 AM72 °FPassing clouds.12 mph57%30.11 "Hg10 mi
9:54 AM70 °FSunny.9 mph66%30.11 "Hg10 mi
8:54 AM67 °FSunny.7 mph73%30.11 "Hg10 mi
7:54 AM64 °FSunny.6 mph84%30.11 "Hg10 mi
6:54 AM60 °FSunny.6 mph90%30.10 "Hg10 mi
5:54 AM56 °FClear.7 mph93%30.09 "Hg10 mi
4:54 AM57 °FClear.7 mph90%30.08 "Hg10 mi
3:54 AM57 °FClear.6 mph87%30.07 "Hg10 mi
2:54 AM58 °FClear.6 mph84%30.06 "Hg10 mi
1:54 AM58 °FClear.7 mph84%30.07 "Hg10 mi
12:54 AM59 °FClear.6 mph84%30.07 "Hg10 mi
Weather by CustomWeather, © 2014

See weather overviewHow to use our weather pages